Location: DaVinci Observatory
(43.1080°N, 78.6453°W)
Time: 09:38:31
(UTC-04:00)

Tiangong 2 - Pass Details

Date: 12 October 2017
Orbit: 388 x 391 km, 42.8° (Epoch: 23 October)

Event Time Altitude Azimuth Distance (km) Brightness Sun altitude
Exits shadow 06:48:29 10° 267° (W) 1,436 3.3 -7.4°
Reaches altitude 10° 06:48:31 10° 267° (W) 1,420 3.3 -7.4°
Maximum altitude 06:51:44 87° 177° (S) 395 1.1 -6.9°
Drops below altitude 10° 06:54:56 10° 89° (E) 1,422 5.8 -6.3°
Sets 06:57:01 0° 89° (E) 2,278 7.6 -5.9°
